Location: Winterthur
(47.5056°N, 8.7241°E)
Time: 10:57:17
(UTC+00:00)

Daily predictions for brighter satellites

Satellite Brightness Start Highest point End
(mag) Time Altitude Azimuth Time Altitude Azimuth Time Altitude Azimuth
Cosmos 2221 3.3 16:00:03 10° SSW 16:04:16 55° WNW 16:08:32 10° N
USA 308 3.7 16:00:38 10° WNW 16:04:34 35° N 16:08:30 10° ENE
SL-16 R/B 3.3 16:00:23 10° N 16:04:51 23° NE 16:09:17 10° E
MOS 1 Rocket 4.0 16:00:58 10° N 16:05:48 58° WNW 16:10:19 10° SSW
CZ-2C R/B 2.8 16:01:25 10° SSE 16:06:11 66° ENE 16:10:54 10° N
Envisat 4.4 16:02:07 10° S 16:06:56 44° W 16:11:50 10° NNW
Cosmos 2082 Rocket 2.6 16:02:49 10° S 16:08:13 47° ESE 16:13:37 10° NE
Sich 1 3.3 16:05:00 10° N 16:09:10 46° ENE 16:13:21 10° SSE
Cosmos 540 Rocket 3.5 16:04:08 10° S 16:09:11 67° ESE 16:14:17 10° NNE
Cosmos 1500 Rocket 3.7 16:04:49 10° N 16:09:16 83° W 16:13:39 10° S
ARGOS 4.5 16:07:14 10° E 16:10:47 18° ENE 16:14:21 10° NNE
SJ-7 4.5 16:08:19 10° SSE 16:12:32 86° ENE 16:16:48 10° NNW
FengYun 1-2 T 4.3 16:08:32 10° SSE 16:13:59 59° ENE 16:19:24 10° N
COSMOS 2455 3.0 16:08:46 10° SSW 16:14:43 66° ESE 16:20:43 10° NE
SMAP 3.3 16:12:16 10° SE 16:16:42 46° ENE 16:21:10 10° N
NOAA 6 4.2 16:13:15 10° SE 16:18:12 50° ENE 16:23:09 10° N
Cosmos 1833 Rocket 3.0 16:15:54 10° SW 16:21:31 71° WNW 16:27:10 10° NNE
Cosmos 1933 3.3 16:17:29 10° S 16:21:31 80° E 16:25:33 10° NNE
Cosmos 1805 Rocket 3.5 16:17:23 10° N 16:21:45 80° E 16:26:05 10° SSE
Cosmos 2278 3.8 16:16:36 10° NNW 16:22:16 60° ENE 16:27:52 10° SE
Cosmos 2333 Rocket 4.0 16:21:24 10° N 16:23:40 12° NNE 16:25:55 10° NE
Cosmos 1602 3.7 16:20:45 10° N 16:24:38 90° ENE 16:28:31 10° S
CZ-4B DEB 4.4 16:22:07 10° SE 16:27:22 48° ENE 16:32:38 10° N
USA 305 3.5 16:25:06 10° WNW 16:29:08 40° NNE 16:32:51 12° E
CZ-2C R/B 3.8 16:26:30 10° NE 16:30:22 21° E 16:34:12 10° SE
SL-24 R/B - RUBIN 2 4.1 16:27:11 10° NW 16:31:39 63° SW 16:35:54 10° SSE
Cosmos 2219 Rocket 4.1 16:30:08 10° NNE 16:31:44 11° NNE 16:33:20 10° NE
CZ-4B R/B 3.0 16:28:48 10° S 16:32:44 76° WSW 16:36:31 10° NNW
Cosmos 1500 3.0 16:31:10 10° N 16:34:54 77° E 16:38:37 10° SSE
Meteor 1-14 Rocket 4.4 16:29:22 10° N 16:35:10 57° ENE 16:41:00 10° SSE
Cosmos 44 Rocket 3.3 16:31:32 10° NNW 16:36:24 56° NE 16:41:06 10° SE
COSMOS 2406 3.6 16:35:27 10° SW 16:41:09 66° WNW 16:46:52 10° NNE
Cosmos 1814 Rocket 4.0 16:36:56 10° S 16:42:03 61° ESE 16:47:09 10° NNE
Cosmos 921 Rocket 3.9 16:39:48 10° SSE 16:43:22 27° E 16:45:57 15° NE
Cosmos 1570 Rocket 4.1 16:43:47 10° S 16:48:55 61° ESE 16:54:05 10° NNE
MOS 1-B Rocket 4.4 16:46:02 10° NNE 16:51:54 48° E 16:58:36 10° S
CZ-4B R/B 3.4 16:48:25 10° SE 16:53:28 43° ENE 16:58:29 10° N
Cosmos 2298 Rocket 4.2 16:49:58 10° NNW 16:55:10 49° ENE 17:00:20 10° SE
CZ-2D R/B 3.2 16:51:58 10° SSE 16:55:43 58° ENE 16:59:28 10° N
USA 267 3.3 16:50:26 15° ENE 16:56:03 75° SE 17:02:35 10° SW
MOS 1-B 4.3 16:52:36 10° SSE 16:58:18 64° ENE 17:04:02 10° N
Cosmos 1939 Rocket 3.5 16:54:22 10° S 16:58:25 61° W 17:02:26 10° NNW
ATLAS CENTAUR R/B 3.1 16:49:15 10° WSW 16:58:32 61° NW 17:01:30 19° NE
Cosmos 1151 Rocket 2.9 16:57:04 10° S 17:01:23 76° E 17:05:46 10° NNE
USA 306 3.1 16:57:25 10° WNW 17:01:34 50° NNE 17:03:51 24° E
COSMO-SKYMED 1 3.3 16:59:10 18° NE 17:01:47 33° E 17:05:42 10° SSE
Cosmos 1633 Rocket 2.9 16:57:28 10° N 17:01:53 76° E 17:06:16 10° SSE
Cosmos 1782 3.6 16:59:38 10° SSW 17:03:32 52° WNW 17:07:27 10° N
Cosmos 1666 2.5 16:59:53 10° N 17:03:38 90° WSW 17:07:20 10° S
APEX 3.8 17:00:31 10° S 17:03:48 30° ESE 17:04:23 28° E
Meteor 2-6 Rocket 4.2 16:58:50 10° S 17:04:25 58° E 17:09:52 10° NNE
Cosmos 2360 Rocket 3.0 17:01:06 10° NNW 17:06:00 29° NE 17:08:17 22° E
ISS -1.1 17:04:14 10° W 17:06:51 21° SW 17:09:28 10° S
PAYLOAD B 4.2 17:02:45 10° SSE 17:08:21 80° ENE 17:13:58 10° NNW
Cosmos 1900 4.2 17:03:38 10° SSW 17:08:29 80° SE 17:11:52 20° NE
YAOGAN 1 4.3 17:11:21 16° NNE 17:11:21 16° NNE 17:12:42 10° NNE
Cosmos 1818 3.6 17:06:27 10° NW 17:11:58 83° SW 17:17:25 10° SSE
CZ-2C R/B 3.7 17:14:21 10° SSW 17:16:42 14° S 17:19:00 10° SE
Cosmos 2279 Rocket 4.0 17:11:12 10° S 17:17:26 89° W 17:23:40 10° N
ATLAS 5 CENTAUR R/B 2.1 17:11:48 10° NW 17:18:42 52° NNE 17:19:39 38° E
Meteor 2-15 4.4 17:13:47 10° S 17:19:47 62° E 17:25:47 10° NNE
Cosmos 2266 Rocket 4.0 17:14:38 10° N 17:20:59 61° ENE 17:27:20 10° SSE
ERBS 4.2 17:18:56 10° NNW 17:20:46 17° N 17:20:46 17° N
USA 307 3.0 17:17:58 10° WNW 17:22:11 58° NNE 17:23:33 38° E
CZ-4C R/B 3.6 17:15:49 10° NW 17:23:00 60° WSW 17:31:18 10° SSE
SL-08 RB Rocket 4.0 17:20:36 10° SE 17:24:58 43° ENE 17:29:19 10° N
Lacrosse 5 rocket 1.8 17:21:24 10° WNW 17:25:16 59° SW 17:28:57 12° SE
Cosmos 2208 Rocket 4.1 17:22:49 10° SSW 17:28:14 81° WNW 17:32:51 15° NNE
ATLAS 2AS CENTAUR R/B 4.0 17:22:58 10° NW 17:28:55 24° NNE 17:31:18 21° NE
Cosmos 1933 Rocket 3.5 17:24:43 10° N 17:29:00 53° ENE 17:33:14 10° SSE
Cosmos 2322 Rocket 2.2 17:23:21 10° NNW 17:29:00 59° ENE 17:34:38 10° SE
COSMOS 2428 4.3 17:25:43 10° N 17:28:44 18° NNE 17:28:44 18° NNE
USA 234 3.3 17:23:34 10° SE 17:30:07 82° SW 17:36:42 10° NW
Cosmos 2150 Rocket 3.9 17:25:34 10° NNW 17:30:48 87° ENE 17:36:03 10° SSE
Cosmos 1328 Rocket 3.7 17:27:02 10° SSW 17:31:27 75° W 17:35:55 10° N
Cosmos 1980 Rocket 4.1 17:26:56 10° NW 17:31:53 32° WSW 17:36:46 10° SSW
Cosmos 1470 Rocket 3.6 17:30:34 10° N 17:35:03 84° W 17:39:32 10° S
Cosmos 1544 2.9 17:31:32 10° N 17:35:10 81° E 17:38:48 10° SSE
Cosmos 1125 Rocket 3.4 17:31:44 10° NNW 17:37:02 90° W 17:42:19 10° SSE
Cosmos 1867 3.9 17:32:12 10° S 17:37:21 45° ESE 17:38:28 39° E
Cosmos 1812 4.3 17:33:50 10° SW 17:37:24 36° WNW 17:40:59 10° N
NOSS 3-3 (A) 4.4 17:32:34 10° S 17:37:38 35° ESE 17:38:22 34° E
NOSS 3-3 (C) 4.4 17:32:40 10° S 17:37:44 35° ESE 17:38:27 34° E
X-37B 2.1 17:35:53 10° SW 17:37:49 25° S 17:37:49 25° S
H-2A R/B 2.5 17:33:31 10° S 17:38:35 62° W 17:43:33 10° NNW
DEBRIS 4.2 17:36:47 10° S 17:38:35 25° SSE 17:38:35 25° SSE
Okean O Rocket 1.5 17:35:52 10° SSE 17:40:20 84° ENE 17:44:50 10° NNW
Meteor 1-10 Rocket 4.1 17:35:47 10° S 17:41:32 85° ESE 17:47:11 10° NNE
Meteor 1-11 Rocket 3.6 17:36:34 10° N 17:42:15 79° E 17:48:00 10° SSE
GEOS 3 Rocket 4.1 17:41:55 37° NE 17:42:17 37° NE 17:47:01 10° NNW
USA 32 4.0 17:38:25 10° SSE 17:43:32 58° E 17:46:22 26° NNE
USA 308 2.7 17:40:39 10° WNW 17:44:56 74° NNE 17:45:21 67° ENE
SL-16 R/B 2.3 17:43:55 10° NNW 17:49:37 78° WSW 17:55:16 10° SSE
SKYMED 2 3.6 17:47:47 29° N 17:50:00 82° WNW 17:54:20 10° SSW
ARGOS 3.2 17:45:01 10° SSE 17:50:25 81° WSW 17:55:51 10° NNW
Cosmos 2237 Rocket 4.4 17:48:42 10° N 17:49:04 11° NNE 17:49:04 11° NNE
Cosmos 2082 Rocket 3.6 17:47:20 10° WSW 17:52:27 34° NW 17:56:57 13° N
deb Chang Zheng 4 4.1 17:51:42 10° S 17:55:57 59° WSW 18:00:13 10° NNW
Cosmos 1241 Rocket 4.5 17:54:36 10° SSW 18:00:51 60° ESE 18:01:58 52° ENE
COSMOS 2455 4.3 17:55:49 10° WSW 18:01:07 31° NW 18:04:54 17° NNE
Feng Yun 1-1 Rocket 4.3 17:59:21 10° SSE 18:05:16 87° ENE 18:11:08 10° NNW
USA 305 3.1 18:04:59 10° WNW 18:08:52 68° WSW 18:08:52 68° WSW
Cosmos 2333 Rocket 3.0 18:04:05 10° NNW 18:08:05 36° NNE 18:08:05 36° NNE
Cosmos 1356 Rocket 4.2 18:05:37 10° NNW 18:09:43 52° W 18:13:52 10° S
CZ-2C R/B 3.1 18:06:50 15° N 18:11:04 58° WNW 18:16:07 10° SSW
Cosmos 2219 Rocket 3.4 18:12:03 10° NNW 18:15:04 28° N 18:15:04 28° N
Aureole 3 Rocket 3.7 18:13:11 10° SSW 18:17:49 79° WNW 18:24:26 10° N
Nadezhda 2 Rocket 4.4 18:18:05 10° N 18:24:24 72° ENE 18:24:24 72° ENE
COSMO-SKYMED 1 4.4 18:36:23 23° NNW 18:37:51 28° WNW 18:41:33 10° SW
USA 267 3.7 18:37:47 46° N 18:38:53 51° NNW 18:45:10 10° W
Meteor 1-27 Rocket 4.5 18:39:23 10° SSW 18:44:42 49° WNW 18:46:30 36° NNW
Cosmos 2360 Rocket 2.7 18:44:48 10° NW 18:50:08 57° W 18:50:08 57° W
Cosmos 2322 Rocket 4.2 19:08:06 10° NW 19:12:39 25° WSW 19:17:09 10° SSW
NOSS 3-4 (A) 4.4 19:11:30 10° NW 19:16:19 50° NW 19:16:19 50° NW
NOSS 3-4 (C) 4.4 19:11:37 10° NW 19:16:24 50° NW 19:16:24 50° NW
ATLAS 2AS CENTAUR R/B 4.0 19:14:36 10° NW 19:18:44 32° NNW 19:18:44 32° NNW
